{"data":{"norad_id":63687,"intl_designator":"2025-086A","name":"HULIANWANG DIGUI-20","alt_names":[],"object_type":"PAYLOAD","status":"ACTIVE","operator":null,"country":"PRC","launch_date":"2025-04-28","launch_site_code":"WSC","launch_vehicle":null,"mission":null,"orbit_class":"UNKNOWN","rcs_meters":null,"size_class":null,"mass_kg":null,"dimensions":null,"purposes":[],"wikipedia_slug":null,"has_3d_model":false,"image_url":null,"decayed_at":null,"tle_current":{"epoch":"2026-05-25T03:12:25.439328Z","epoch_age_seconds":63806,"freshness":"FRESH","line1":"1 63687U 25086A   26145.13362777  .00000061  00000+0  10733-3 0  9998","line2":"2 63687  86.5033 320.9020 0001451  82.1979 277.9319 13.24409001 51828","mean_motion":13.24409001,"eccentricity":0.0001451,"inclination_deg":86.5033,"raan_deg":320.902,"arg_perigee_deg":82.1979,"mean_anomaly_deg":277.9319,"bstar":0.00010733,"rev_number":5182,"period_min":108.72774187677,"perigee_km":1166.831046543,"apogee_km":1169.0209140199,"semimajor_km":7546.0629802814,"source":"CELESTRAK","updated_at":"2026-05-25T13:38:03.889707Z"}}}